EN

Hourly Weather Dziecmiarki

Today, 30 October, Friday

Time Temperature Precipitation Wind Pressure Humidity
00:00 +6°C° 0 mm 4 mps 751 mmHg 87%
01:00 +5°C° 0 mm 4 mps 752 mmHg 89%
02:00 +5°C° 0 mm 4 mps 752 mmHg 90%
03:00 +5°C° 0 mm 4 mps 751 mmHg 91%
04:00 +5°C° 0 mm 4 mps 751 mmHg 92%
05:00 +5°C° 0 mm 3 mps 751 mmHg 91%
06:00 +5°C° 0 mm 3 mps 751 mmHg 90%
07:00 +5°C° 0 mm 3 mps 751 mmHg 90%
08:00 +5°C° 0.2 mm 3 mps 751 mmHg 89%
09:00 +7°C° 0.2 mm 3 mps 751 mmHg 89%
10:00 +6°C° 0.2 mm 4 mps 751 mmHg 88%
11:00 +7°C° 0.8 mm 3 mps 750 mmHg 90%
12:00 +7°C° 0.8 mm 3 mps 750 mmHg 92%
13:00 +7°C° 0.8 mm 3 mps 750 mmHg 94%
14:00 +8°C° 0.7 mm 2 mps 750 mmHg 95%
15:00 +8°C° 0.7 mm 2 mps 750 mmHg 96%
16:00 +9°C° 0.7 mm 1 mps 750 mmHg 97%
17:00 +9°C° 0.4 mm 1 mps 750 mmHg 97%
18:00 +10°C° 0.4 mm 1 mps 750 mmHg 97%
19:00 +10°C° 0.4 mm 1 mps 751 mmHg 97%
20:00 +10°C° 0.3 mm 1 mps 751 mmHg 97%
21:00 +10°C° 0.3 mm 1 mps 751 mmHg 97%
22:00 +10°C° 0.3 mm 1 mps 752 mmHg 97%
23:00 +10°C° 0.4 mm 1 mps 752 mmHg 96%

Tomorrow, 31 October, Saturday

Time Temperature Precipitation Wind Pressure Humidity
00:00 +10°C° 0.4 mm 1 mps 753 mmHg 96%
01:00 +9°C° 0.4 mm 0 mps 753 mmHg 96%
02:00 +9°C° 0.1 mm 0 mps 753 mmHg 96%
03:00 +10°C° 0.1 mm 1 mps 754 mmHg 95%
04:00 +10°C° 0.1 mm 1 mps 754 mmHg 95%
05:00 +10°C° 0 mm 1 mps 755 mmHg 95%
06:00 +10°C° 0 mm 1 mps 755 mmHg 95%
07:00 +9°C° 0 mm 1 mps 755 mmHg 95%
08:00 +10°C° 0 mm 1 mps 756 mmHg 92%
09:00 +11°C° 0 mm 1 mps 756 mmHg 89%
10:00 +10°C° 0 mm 2 mps 756 mmHg 86%
11:00 +12°C° 0 mm 2 mps 756 mmHg 83%
12:00 +13°C° 0 mm 2 mps 756 mmHg 80%
13:00 +14°C° 0 mm 2 mps 756 mmHg 77%
14:00 +13°C° 0 mm 2 mps 756 mmHg 79%
15:00 +13°C° 0 mm 1 mps 756 mmHg 81%
16:00 +12°C° 0 mm 1 mps 756 mmHg 83%
17:00 +12°C° 0 mm 2 mps 756 mmHg 84%
18:00 +12°C° 0 mm 2 mps 756 mmHg 85%
19:00 +10°C° 0 mm 3 mps 756 mmHg 86%
20:00 +10°C° 0 mm 3 mps 756 mmHg 86%
21:00 +9°C° 0 mm 3 mps 756 mmHg 86%
22:00 +8°C° 0 mm 4 mps 756 mmHg 86%
23:00 +7°C° 0 mm 4 mps 756 mmHg 86%

Day after tomorrow, 1 November, Sunday

Time Temperature Precipitation Wind Pressure Humidity
00:00 +7°C° 0 mm 4 mps 755 mmHg 86%
01:00 +7°C° 0 mm 4 mps 755 mmHg 86%
02:00 +6°C° 0 mm 4 mps 755 mmHg 86%
03:00 +6°C° 0 mm 4 mps 754 mmHg 86%
04:00 +6°C° 0 mm 5 mps 754 mmHg 87%
05:00 +6°C° 0 mm 5 mps 754 mmHg 86%
06:00 +6°C° 0 mm 5 mps 753 mmHg 86%
07:00 +6°C° 0 mm 5 mps 753 mmHg 86%
08:00 +7°C° 0 mm 5 mps 753 mmHg 82%
09:00 +8°C° 0 mm 5 mps 753 mmHg 78%
10:00 +9°C° 0 mm 5 mps 753 mmHg 74%
11:00 +10°C° 0 mm 5 mps 752 mmHg 73%
12:00 +12°C° 0 mm 5 mps 752 mmHg 73%
13:00 +13°C° 0 mm 6 mps 751 mmHg 73%
14:00 +13°C° 0 mm 5 mps 751 mmHg 76%
15:00 +13°C° 0 mm 5 mps 750 mmHg 79%
16:00 +12°C° 0 mm 5 mps 750 mmHg 82%
17:00 +12°C° 0.7 mm 5 mps 750 mmHg 85%
18:00 +12°C° 0.7 mm 5 mps 749 mmHg 89%
19:00 +12°C° 0.7 mm 5 mps 749 mmHg 92%
20:00 +12°C° 0.6 mm 5 mps 749 mmHg 92%
21:00 +12°C° 0.6 mm 5 mps 749 mmHg 92%
22:00 +12°C° 0.6 mm 5 mps 749 mmHg 92%
23:00 +12°C° 0 mm 5 mps 749 mmHg 92%

2 November, Monday

Time Temperature Precipitation Wind Pressure Humidity
00:00 +12°C° 0 mm 5 mps 749 mmHg 92%
01:00 +12°C° 0 mm 5 mps 748 mmHg 91%
02:00 +12°C° 0.1 mm 5 mps 748 mmHg 91%
03:00 +12°C° 0.1 mm 5 mps 748 mmHg 90%
04:00 +12°C° 0.1 mm 5 mps 748 mmHg 90%
05:00 +11°C° 0.5 mm 6 mps 747 mmHg 91%
06:00 +11°C° 0.5 mm 6 mps 747 mmHg 92%
07:00 +11°C° 0.5 mm 6 mps 747 mmHg 93%
08:00 +13°C° 0.1 mm 6 mps 747 mmHg 91%
09:00 +13°C° 0.1 mm 6 mps 747 mmHg 90%
10:00 +14°C° 0.1 mm 6 mps 747 mmHg 89%
11:00 +15°C° 0 mm 6 mps 747 mmHg 85%
12:00 +16°C° 0 mm 6 mps 747 mmHg 81%
13:00 +17°C° 0 mm 7 mps 747 mmHg 77%
14:00 +17°C° 0 mm 6 mps 747 mmHg 78%
15:00 +17°C° 0 mm 6 mps 747 mmHg 80%
16:00 +17°C° 0 mm 5 mps 747 mmHg 81%
17:00 +16°C° 0 mm 5 mps 748 mmHg 81%
18:00 +16°C° 0 mm 5 mps 748 mmHg 81%
19:00 +16°C° 0 mm 5 mps 748 mmHg 81%
20:00 +16°C° 0 mm 6 mps 748 mmHg 82%
21:00 +16°C° 0 mm 6 mps 748 mmHg 83%
22:00 +16°C° 0 mm 6 mps 748 mmHg 83%
23:00 +15°C° 0 mm 6 mps 749 mmHg 83%

3 November, Tuesday

Time Temperature Precipitation Wind Pressure Humidity
00:00 +15°C° 0 mm 6 mps 749 mmHg 83%
01:00 +15°C° 0 mm 6 mps 749 mmHg 83%
02:00 +15°C° 0 mm 6 mps 750 mmHg 84%
03:00 +15°C° 0 mm 5 mps 750 mmHg 85%
04:00 +15°C° 0 mm 5 mps 750 mmHg 86%
05:00 +14°C° 0 mm 4 mps 751 mmHg 86%
06:00 +13°C° 0 mm 4 mps 752 mmHg 85%
07:00 +12°C° 0 mm 3 mps 753 mmHg 84%
08:00 +13°C° 0 mm 3 mps 753 mmHg 81%
09:00 +13°C° 0 mm 3 mps 754 mmHg 78%
10:00 +14°C° 0 mm 3 mps 754 mmHg 75%
11:00 +14°C° 0 mm 3 mps 755 mmHg 70%
12:00 +15°C° 0 mm 2 mps 755 mmHg 66%
13:00 +15°C° 0 mm 2 mps 755 mmHg 62%
14:00 +15°C° 0 mm 1 mps 756 mmHg 63%
15:00 +14°C° 0 mm 1 mps 756 mmHg 65%
16:00 +14°C° 0 mm 1 mps 756 mmHg 66%
17:00 +14°C° 0 mm 1 mps 756 mmHg 68%
18:00 +13°C° 0 mm 1 mps 756 mmHg 69%
19:00 +13°C° 0 mm 1 mps 756 mmHg 71%
20:00 +13°C° 0.2 mm 1 mps 756 mmHg 76%
21:00 +13°C° 0.2 mm 1 mps 756 mmHg 80%
22:00 +12°C° 0.2 mm 1 mps 756 mmHg 85%
23:00 +12°C° 0.6 mm 1 mps 756 mmHg 88%

4 November, Wednesday

Time Temperature Precipitation Wind Pressure Humidity
00:00 +12°C° 0.6 mm 1 mps 756 mmHg 91%
01:00 +12°C° 0.6 mm 1 mps 756 mmHg 95%
02:00 +12°C° 0.8 mm 1 mps 756 mmHg 95%
03:00 +12°C° 0.8 mm 1 mps 756 mmHg 96%
04:00 +12°C° 0.8 mm 1 mps 756 mmHg 97%
05:00 +12°C° 0.8 mm 1 mps 756 mmHg 97%
06:00 +12°C° 0.8 mm 1 mps 756 mmHg 97%
07:00 +12°C° 0.8 mm 1 mps 756 mmHg 97%
08:00 +12°C° 0.3 mm 1 mps 756 mmHg 96%
09:00 +12°C° 0.3 mm 1 mps 756 mmHg 95%
10:00 +13°C° 0.3 mm 1 mps 756 mmHg 94%
11:00 +13°C° 0.1 mm 2 mps 756 mmHg 92%
12:00 +13°C° 0.1 mm 2 mps 757 mmHg 90%
13:00 +13°C° 0.1 mm 2 mps 757 mmHg 88%
14:00 +13°C° 0 mm 2 mps 757 mmHg 89%
15:00 +12°C° 0 mm 3 mps 757 mmHg 89%
16:00 +11°C° 0 mm 3 mps 757 mmHg 89%
17:00 +12°C° 0 mm 2 mps 758 mmHg 90%
18:00 +10°C° 0 mm 2 mps 758 mmHg 91%
19:00 +10°C° 0 mm 2 mps 758 mmHg 92%
20:00 +10°C° 0 mm 2 mps 759 mmHg 92%
21:00 +9°C° 0 mm 3 mps 759 mmHg 92%
22:00 +9°C° 0 mm 3 mps 760 mmHg 93%
23:00 +9°C° 0 mm 3 mps 760 mmHg 93%
Show more